Location: Fauquembergues
(50.6005°N, 2.0987°E)
Time: 08:53:33
(UTC+00:00)

Abrixas rocket - Pass Details

Date: 14 July 2020
Orbit: 338 x 346 km, 48.4° (Epoch: 13 August)

Event Time Altitude Azimuth Distance (km) Brightness Sun altitude
Exits shadow 03:05:54 - 274° (W) 2,113 5.4 -6.7°
Reaches altitude 10° 03:08:10 10° 257° (WSW) 1,280 4.2 -6.5°
Maximum altitude 03:10:23 20° 206° (SSW) 851 3.2 -6.2°
Drops below altitude 10° 03:12:35 10° 156° (SSE) 1,276 4.5 -6.0°
Sets 03:14:52 0° 138° (SE) 2,111 5.8 -5.7°
